| time (UTC) | temp C | wind direction | speed KPH | gust KPH | rain 1hr cm | rain 24hr cm | rain mn cm | humidity % | barometer mb |
| 20260504174558 | 20 | 307 | 6.4 | 19.3 | 0.00 | 0.00 | 0.00 | 40 | 1011.3 |
| 20260504173108 | 20 | 56 | 4.8 | 17.7 | 0.00 | 0.00 | 0.00 | 44 | 1011.3 |
| 20260504171607 | 20 | 325 | 6.4 | 27.4 | 0.00 | 0.00 | 0.00 | 44 | 1011.4 |
| 20260504160112 | 18 | 229 | 6.4 | 17.7 | 0.00 | 0.00 | 0.00 | 49 | 1012.4 |
| 20260504081558 | 3 | 298 | 0.0 | 6.4 | 0.00 | 0.00 | 0.00 | 84 | 1013.8 |
| 20260504044550 | 3 | 0 | 0.0 | 3.2 | 0.00 | 0.00 | 0.00 | 82 | 1013.6 |
| 20260504043055 | 3 | 0 | 0.0 | 3.2 | 0.00 | 0.00 | 0.00 | 84 | 1013.7 |
| 20260504041556 | 3 | 0 | 0.0 | 1.6 | 0.00 | 0.00 | 0.00 | 83 | 1013.6 |
| 20260504040054 | 3 | 0 | 0.0 | 0.0 | 0.00 | 0.00 | 0.00 | 84 | 1013.3 |
| 20260504034557 | 3 | 0 | 0.0 | 0.0 | 0.00 | 0.00 | 0.00 | 83 | 1013.1 |
| 20260504033056 | 3 | 0 | 0.0 | 0.0 | 0.00 | 0.00 | 0.00 | 83 | 1013.1 |
| 20260504031552 | 4 | 0 | 0.0 | 0.0 | 0.00 | 0.00 | 0.00 | 82 | 1013.0 |
| 20260504030051 | 4 | 0 | 0.0 | 0.0 | 0.00 | 0.00 | 0.00 | 79 | 1012.8 |
| 20260504024600 | 4 | 0 | 0.0 | 0.0 | 0.00 | 0.00 | 0.00 | 80 | 1012.8 |
| 20260504023055 | 5 | 0 | 0.0 | 0.0 | 0.00 | 0.00 | 0.00 | 81 | 1012.8 |
| 20260504021554 | 5 | 0 | 0.0 | 0.0 | 0.00 | 0.00 | 0.00 | 79 | 1012.8 |
| 20260504020058 | 6 | 0 | 0.0 | 0.0 | 0.00 | 0.00 | 0.00 | 76 | 1012.9 |
| 20260504014559 | 6 | 0 | 0.0 | 0.0 | 0.00 | 0.00 | 0.00 | 76 | 1012.8 |
| 20260504013111 | 7 | 0 | 0.0 | 0.0 | 0.00 | 0.00 | 0.00 | 74 | 1012.8 |
| 20260504011554 | 7 | 0 | 0.0 | 0.0 | 0.00 | 0.00 | 0.00 | 67 | 1012.5 |
| 20260504010055 | 8 | 286 | 0.0 | 3.2 | 0.00 | 0.00 | 0.00 | 61 | 1012.4 |
| 20260504004553 | 10 | 0 | 0.0 | 3.2 | 0.00 | 0.00 | 0.00 | 57 | 1012.2 |
| 20260504003051 | 11 | 0 | 0.0 | 3.2 | 0.00 | 0.00 | 0.00 | 51 | 1012.0 |
| 20260504001552 | 11 | 0 | 0.0 | 3.2 | 0.00 | 0.00 | 0.00 | 49 | 1011.8 |
| 20260504000106 | 12 | 0 | 0.0 | 6.4 | 0.00 | 0.00 | 0.00 | 45 | 1011.5 |
| 20260503234549 | 12 | 0 | 0.0 | 1.6 | 0.00 | 0.00 | 0.00 | 43 | 1011.4 |
| 20260503233049 | 13 | 0 | 1.6 | 11.3 | 0.00 | 0.00 | 0.00 | 41 | 1011.4 |
| 20260503231554 | 13 | 0 | 4.8 | 12.9 | 0.00 | 0.00 | 0.00 | 40 | 1011.3 |
| 20260503230052 | 14 | 303 | 1.6 | 14.5 | 0.00 | 0.00 | 0.00 | 39 | 1011.3 |
| 20260503224600 | 14 | 0 | 4.8 | 17.7 | 0.00 | 0.00 | 0.00 | 37 | 1011.3 |
| 20260503223050 | 15 | 296 | 4.8 | 16.1 | 0.00 | 0.00 | 0.00 | 37 | 1011.2 |
| 20260503221601 | 15 | 298 | 8.0 | 19.3 | 0.00 | 0.00 | 0.00 | 36 | 1011.1 |
| 20260503220052 | 15 | 317 | 9.7 | 20.9 | 0.00 | 0.00 | 0.00 | 35 | 1010.9 |
| 20260503214551 | 14 | 285 | 4.8 | 20.9 | 0.00 | 0.00 | 0.00 | 36 | 1011.2 |
| 20260503213050 | 15 | 297 | 4.8 | 17.7 | 0.00 | 0.00 | 0.00 | 36 | 1011.0 |
| 20260503211556 | 15 | 319 | 6.4 | 19.3 | 0.00 | 0.00 | 0.00 | 33 | 1011.0 |
| 20260503210050 | 15 | 338 | 12.9 | 29.0 | 0.00 | 0.00 | 0.00 | 35 | 1011.1 |
| 20260503204609 | 15 | 331 | 9.7 | 25.7 | 0.00 | 0.00 | 0.00 | 36 | 1011.2 |
| 20260503203049 | 15 | 327 | 9.7 | 20.9 | 0.00 | 0.00 | 0.00 | 37 | 1011.1 |
| 20260503201552 | 15 | 284 | 8.0 | 19.3 | 0.00 | 0.00 | 0.00 | 36 | 1011.3 |
| 20260503200054 | 13 | 296 | 4.8 | 19.3 | 0.00 | 0.00 | 0.00 | 38 | 1011.5 |
| 20260503194555 | 13 | 281 | 8.0 | 29.0 | 0.00 | 0.00 | 0.00 | 35 | 1011.5 |
| 20260503193051 | 13 | 242 | 4.8 | 19.3 | 0.00 | 0.00 | 0.00 | 37 | 1011.6 |
| 20260503191608 | 13 | 304 | 11.3 | 29.0 | 0.00 | 0.00 | 0.00 | 35 | 1011.5 |
| 20260503190048 | 13 | 314 | 4.8 | 22.5 | 0.00 | 0.00 | 0.00 | 41 | 1011.6 |
| 20260503184553 | 13 | 321 | 3.2 | 29.0 | 0.00 | 0.00 | 0.00 | 41 | 1011.5 |
| 20260503183055 | 13 | 271 | 3.2 | 20.9 | 0.00 | 0.00 | 0.00 | 39 | 1011.7 |
| 20260503181552 | 12 | 298 | 8.0 | 22.5 | 0.00 | 0.00 | 0.00 | 39 | 1011.9 |
| 20260503180059 | 13 | 260 | 9.7 | 29.0 | 0.00 | 0.00 | 0.00 | 40 | 1012.1 |